Location: Ash Observatory
(39.7321°N, 75.2004°W)
Time: 05:57:04
(UTC-04:00)

ISS - Pass Details

Date: 29 March 2019
Orbit: 408 x 410 km, 51.6° (Epoch: 25 April)

Event Time Altitude Azimuth Distance (km) Brightness Sun altitude
Rises 19:39:15 0° 285° (WNW) 2,334 2.6 -4.2°
Reaches altitude 10° 19:42:09 10° 313° (NW) 1,473 0.0 -4.7°
Maximum altitude 19:43:55 14° 346° (NNW) 1,272 -1.0 -5.1°
Drops below altitude 10° 19:45:41 10° 18° (NNE) 1,474 -1.1 -5.4°
Sets 19:48:36 0° 46° (NE) 2,336 -0.3 -5.9°
